Location: Unspecified
(47.9110°N, 14.3980°E)
Time: 08:25:33
(UTC+00:00)

Cosmos 1470 Rocket - Pass Details

Date: 06 August 2020
Orbit: 604 x 633 km, 82.5° (Epoch: 26 September)

Event Time Altitude Azimuth Distance (km) Brightness Sun altitude
Exits shadow 20:45:52 33° 179° (S) 1,057 4.3 -18.3°
Maximum altitude 20:47:50 78° 97° (E) 643 3.5 -18.5°
Drops below altitude 10° 20:52:16 10° 12° (NNE) 1,998 6.8 -18.9°
Sets 20:54:29 0° 11° (N) 2,904 7.7 -19.1°
